Location: Moscow
(55.7500°N, 37.5830°E)
Time: 21:53:23
(UTC+03:00)

N. Korean satellite - Pass Details

Date: 04 March 2021
Orbit: 452 x 499 km, 97.2° (Epoch: 20 April)

Event Time Altitude Azimuth Distance (km) Brightness Sun altitude
Rises 04:46:10 0° 29° (NNE) 2,523 11.0 -21.2°
Reaches altitude 10° 04:49:16 10° 60° (ENE) 1,651 10.4 -20.8°
Maximum altitude 04:50:53 13° 87° (E) 1,497 10.0 -20.6°
Drops below altitude 10° 04:52:30 10° 114° (ESE) 1,657 9.9 -20.4°
Sets 04:55:36 0° 145° (SE) 2,543 10.4 -20.0°
